�������l�o���
Date,Time,MP-1(��Sv/h),MP-2(��Sv/h),MP-3(��Sv/h),MP-4(��Sv/h),MP-5(��Sv/h),MP-6(��Sv/h),MP-7(��Sv/h),MP-8(��Sv/h),����,����(m/s),���J
2023/12/12,00:00,0.519,0.786,0.491,0.989,0.705,0.315,0.568,0.527,�k�k��,5.5,��
2023/12/12,00:10,0.519,0.785,0.490,0.989,0.708,0.314,0.569,0.527,�k�k��,5.8,��
2023/12/12,00:20,0.519,0.784,0.489,0.988,0.707,0.314,0.569,0.529,�k�k��,5.5,��
2023/12/12,00:30,0.518,0.784,0.491,0.989,0.710,0.316,0.568,0.530,�k�k��,5.9,��
2023/12/12,00:40,0.518,0.786,0.491,0.989,0.708,0.315,0.567,0.529,�k�k��,6.4,��
2023/12/12,00:50,0.520,0.786,0.489,0.990,0.709,0.316,0.569,0.529,�k�k��,6.2,��
2023/12/12,01:00,0.517,0.784,0.490,0.990,0.709,0.315,0.567,0.528,�k�k��,6.0,�L
2023/12/12,01:10,0.519,0.785,0.490,0.991,0.709,0.315,0.567,0.530,�k�k��,5.7,�L
2023/12/12,01:20,0.518,0.784,0.490,0.989,0.708,0.315,0.566,0.529,�k�k��,6.3,�L
2023/12/12,01:30,0.518,0.784,0.490,0.988,0.708,0.316,0.568,0.529,�k�k��,4.5,�L
2023/12/12,01:40,0.519,0.780,0.490,0.988,0.702,0.318,0.566,0.528,�k��,5.4,�L
2023/12/12,01:50,0.514,0.771,0.486,0.982,0.696,0.317,0.564,0.526,�k,6.3,�L
2023/12/12,02:00,0.509,0.767,0.486,0.977,0.692,0.317,0.561,0.523,�k,8.0,�L
2023/12/12,02:10,0.512,0.766,0.485,0.971,0.690,0.317,0.563,0.525,�k�k��,9.3,�L
2023/12/12,02:20,0.510,0.767,0.486,0.973,0.692,0.315,0.563,0.525,�k,8.1,�L
2023/12/12,02:30,0.511,0.766,0.485,0.972,0.692,0.315,0.562,0.524,�k�k��,8.3,�L
2023/12/12,02:40,0.511,0.765,0.485,0.971,0.692,0.314,0.564,0.524,�k�k��,6.8,�L
2023/12/12,02:50,0.511,0.766,0.485,0.969,0.690,0.317,0.564,0.524,�k�k��,5.5,�L
2023/12/12,03:00,0.510,0.765,0.483,0.970,0.691,0.317,0.564,0.523,�k��,7.1,�L
2023/12/12,03:10,0.511,0.766,0.485,0.970,0.692,0.317,0.564,0.524,�k�k��,6.2,�L
2023/12/12,03:20,0.509,0.764,0.485,0.967,0.691,0.317,0.563,0.525,�k��,6.1,�L
2023/12/12,03:30,0.509,0.764,0.483,0.968,0.688,0.316,0.562,0.524,�k�k��,5.6,�L
2023/12/12,03:40,0.509,0.762,0.484,0.967,0.689,0.316,0.564,0.525,�k�k��,5.3,�L
2023/12/12,03:50,0.508,0.763,0.484,0.966,0.691,0.316,0.564,0.524,�k�k��,4.1,�L
2023/12/12,04:00,0.509,0.764,0.482,0.967,0.688,0.314,0.562,0.523,�k��,3.5,�L
2023/12/12,04:10,0.508,0.764,0.482,0.967,0.692,0.316,0.563,0.524,�k�k��,2.6,�L
2023/12/12,04:20,0.508,0.764,0.483,0.965,0.689,0.315,0.562,0.524,�k��,2.9,�L
2023/12/12,04:30,0.509,0.764,0.482,0.965,0.690,0.316,0.561,0.524,�k��,2.5,�L
2023/12/12,04:40,0.508,0.763,0.483,0.966,0.689,0.316,0.563,0.525,�k��,2.3,�L
2023/12/12,04:50,0.509,0.764,0.483,0.964,0.689,0.315,0.563,0.525,�k��,2.0,�L
2023/12/12,05:00,0.506,0.763,0.481,0.968,0.689,0.314,0.561,0.525,�k��,2.6,�L
2023/12/12,05:10,0.509,0.763,0.483,0.965,0.689,0.315,0.560,0.524,�k�k��,3.1,�L
2023/12/12,05:20,0.508,0.764,0.482,0.964,0.689,0.316,0.562,0.525,�k�k��,2.2,�L
2023/12/12,05:30,0.507,0.762,0.484,0.964,0.689,0.315,0.561,0.524,-,CALM,�L
2023/12/12,05:40,0.508,0.759,0.484,0.963,0.687,0.316,0.562,0.523,-,CALM,�L
2023/12/12,05:50,0.508,0.761,0.485,0.961,0.686,0.318,0.561,0.524,�k,1.4,�L
2023/12/12,06:00,0.508,0.763,0.484,0.957,0.686,0.316,0.559,0.523,�k�k��,3.0,�L
2023/12/12,06:10,0.507,0.763,0.482,0.957,0.686,0.315,0.559,0.523,�k�k��,2.7,�L
2023/12/12,06:20,0.507,0.760,0.483,0.958,0.687,0.316,0.557,0.524,�k�k��,3.2,�L
2023/12/12,06:30,0.506,0.761,0.481,0.958,0.687,0.315,0.560,0.521,�k�k��,4.6,�L
2023/12/12,06:40,0.504,0.759,0.481,0.956,0.687,0.314,0.558,0.524,�k�k��,5.9,�L
2023/12/12,06:50,0.504,0.759,0.479,0.955,0.685,0.314,0.557,0.523,�k�k��,5.6,�L
2023/12/12,07:00,0.504,0.759,0.478,0.956,0.684,0.313,0.560,0.522,�k�k��,5.8,�L
2023/12/12,07:10,0.504,0.756,0.479,0.954,0.682,0.312,0.558,0.523,�k�k��,5.8,�L
2023/12/12,07:20,0.502,0.759,0.479,0.954,0.683,0.313,0.559,0.522,�k�k��,5.7,�L
2023/12/12,07:30,0.503,0.757,0.478,0.955,0.683,0.313,0.559,0.524,�k�k��,5.6,�L
2023/12/12,07:40,0.504,0.756,0.481,0.953,0.683,0.313,0.556,0.522,�k�k��,6.2,�L
2023/12/12,07:50,0.504,0.757,0.479,0.954,0.682,0.312,0.559,0.522,�k�k��,6.9,�L
2023/12/12,08:00,0.503,0.753,0.479,0.955,0.682,0.313,0.559,0.520,�k�k��,7.4,�L
2023/12/12,08:10,0.503,0.757,0.479,0.953,0.681,0.312,0.560,0.522,�k�k��,7.6,�L
2023/12/12,08:20,0.504,0.756,0.479,0.949,0.683,0.313,0.558,0.522,�k�k��,7.3,�L
2023/12/12,08:30,0.502,0.754,0.479,0.950,0.681,0.312,0.560,0.521,�k�k��,7.9,�L
2023/12/12,08:40,0.502,0.755,0.476,0.949,0.681,0.313,0.560,0.521,�k�k��,8.2,�L
2023/12/12,08:50,0.503,0.753,0.478,0.949,0.682,0.313,0.558,0.519,�k�k��,8.1,�L
2023/12/12,09:00,0.501,0.753,0.479,0.950,0.679,0.313,0.559,0.523,�k�k��,10.3,�L
2023/12/12,09:10,0.502,0.754,0.479,0.950,0.680,0.312,0.559,0.521,�k�k��,9.5,�L
2023/12/12,09:20,0.502,0.753,0.478,0.950,0.681,0.313,0.560,0.520,�k�k��,9.0,�L
2023/12/12,09:30,0.505,0.752,0.478,0.949,0.682,0.313,0.558,0.519,�k�k��,8.6,�L
2023/12/12,09:40,0.504,0.755,0.479,0.948,0.681,0.313,0.558,0.520,�k�k��,8.3,�L
2023/12/12,09:50,0.503,0.756,0.479,0.948,0.682,0.312,0.558,0.520,�k�k��,7.0,�L
2023/12/12,10:00,0.502,0.756,0.477,0.948,0.680,0.312,0.558,0.520,�k�k��,6.7,��
2023/12/12,10:10,0.501,0.754,0.478,0.949,0.681,0.311,0.560,0.520,�k�k��,6.5,��
2023/12/12,10:20,0.504,0.756,0.478,0.950,0.680,0.311,0.558,0.521,�k�k��,6.4,�L
2023/12/12,10:30,0.503,0.753,0.476,0.947,0.681,0.312,0.557,0.522,�k�k��,6.6,�L
2023/12/12,10:40,0.502,0.755,0.478,0.949,0.682,0.311,0.557,0.522,�k�k��,6.4,�L
2023/12/12,10:50,0.502,0.755,0.479,0.950,0.680,0.311,0.555,0.521,�k�k��,5.6,��
2023/12/12,11:00,0.502,0.756,0.478,0.949,0.681,0.311,0.558,0.521,�k�k��,5.7,��
2023/12/12,11:10,0.503,0.756,0.477,0.948,0.680,0.311,0.556,0.520,�k�k��,5.7,��
2023/12/12,11:20,0.500,0.754,0.479,0.951,0.680,0.311,0.557,0.521,�k,6.3,��
2023/12/12,11:30,0.501,0.756,0.477,0.948,0.681,0.311,0.558,0.521,�k,5.3,��
2023/12/12,11:40,0.502,0.756,0.475,0.946,0.680,0.310,0.557,0.523,�k,5.1,��
2023/12/12,11:50,0.501,0.756,0.477,0.949,0.684,0.311,0.558,0.521,�k,5.1,��
2023/12/12,12:00,0.502,0.755,0.479,0.948,0.681,0.310,0.557,0.522,�k�k��,7.3,��
2023/12/12,12:10,0.502,0.754,0.478,0.949,0.683,0.310,0.557,0.521,�k�k��,5.8,��
2023/12/12,12:20,0.502,0.754,0.477,0.948,0.682,0.310,0.557,0.520,�k�k��,6.1,��
2023/12/12,12:30,0.504,0.754,0.476,0.946,0.682,0.311,0.556,0.520,�k�k��,6.4,��
2023/12/12,12:40,0.501,0.754,0.477,0.949,0.682,0.311,0.557,0.521,�k,6.0,��
2023/12/12,12:50,0.502,0.755,0.477,0.948,0.684,0.310,0.556,0.523,�k�k��,6.1,��
2023/12/12,13:00,0.503,0.755,0.478,0.950,0.680,0.310,0.557,0.521,�k�k��,8.4,��
2023/12/12,13:10,0.503,0.754,0.476,0.949,0.682,0.310,0.558,0.521,�k,8.8,��
2023/12/12,13:20,0.501,0.753,0.477,0.950,0.683,0.310,0.556,0.520,�k�k��,10.6,��
2023/12/12,13:30,0.502,0.754,0.478,0.950,0.681,0.311,0.556,0.520,�k,9.8,��
2023/12/12,13:40,0.503,0.754,0.476,0.951,0.681,0.311,0.557,0.521,�k,11.6,��
2023/12/12,13:50,0.502,0.754,0.479,0.952,0.681,0.310,0.556,0.520,�k,10.6,��
2023/12/12,14:00,0.501,0.754,0.477,0.951,0.682,0.311,0.557,0.521,�k,12.4,��
2023/12/12,14:10,0.503,0.756,0.478,0.951,0.683,0.310,0.557,0.520,�k�k��,12.4,��
2023/12/12,14:20,0.502,0.756,0.478,0.951,0.682,0.310,0.558,0.520,�k,11.4,��
2023/12/12,14:30,0.503,0.754,0.479,0.950,0.685,0.310,0.556,0.521,�k,9.9,��
2023/12/12,14:40,0.504,0.755,0.478,0.949,0.685,0.311,0.557,0.522,�k,9.6,��
2023/12/12,14:50,0.503,0.756,0.479,0.950,0.686,0.312,0.556,0.521,�k,9.5,��
2023/12/12,15:00,0.502,0.756,0.477,0.953,0.685,0.311,0.557,0.523,�k,9.9,��
2023/12/12,15:10,0.505,0.759,0.479,0.952,0.685,0.311,0.556,0.522,�k,7.6,��
2023/12/12,15:20,0.503,0.758,0.479,0.954,0.688,0.312,0.556,0.523,�k�k��,8.4,��
2023/12/12,15:30,0.505,0.760,0.478,0.951,0.687,0.311,0.556,0.522,�k,6.1,��
2023/12/12,15:40,0.505,0.757,0.480,0.952,0.686,0.311,0.558,0.523,�k�k��,4.9,��
2023/12/12,15:50,0.505,0.761,0.480,0.952,0.686,0.312,0.555,0.523,�k�k��,6.0,��
2023/12/12,16:00,0.505,0.759,0.479,0.952,0.686,0.312,0.556,0.523,�k�k��,6.9,��
2023/12/12,16:10,0.502,0.760,0.479,0.954,0.687,0.310,0.557,0.523,�k�k��,7.9,��
2023/12/12,16:20,0.504,0.761,0.480,0.953,0.685,0.311,0.557,0.522,�k�k��,7.8,��
2023/12/12,16:30,0.503,0.759,0.478,0.953,0.685,0.311,0.557,0.524,�k,8.6,��
2023/12/12,16:40,0.505,0.760,0.480,0.953,0.687,0.311,0.557,0.524,�k,9.4,��
2023/12/12,16:50,0.503,0.760,0.479,0.953,0.686,0.311,0.558,0.524,�k,9.4,��
2023/12/12,17:00,0.504,0.761,0.479,0.954,0.688,0.310,0.558,0.524,�k,9.7,��
2023/12/12,17:10,0.504,0.760,0.479,0.954,0.687,0.312,0.558,0.522,�k,9.8,��
2023/12/12,17:20,0.504,0.761,0.478,0.953,0.686,0.311,0.557,0.522,�k,9.4,��
2023/12/12,17:30,0.503,0.761,0.478,0.956,0.686,0.310,0.558,0.524,�k,9.5,��
2023/12/12,17:40,0.504,0.759,0.480,0.956,0.686,0.312,0.557,0.523,�k,10.8,��
2023/12/12,17:50,0.505,0.761,0.479,0.954,0.686,0.310,0.557,0.524,�k�k��,10.3,��
2023/12/12,18:00,0.503,0.762,0.478,0.953,0.687,0.311,0.555,0.525,�k,9.5,��
2023/12/12,18:10,0.505,0.762,0.478,0.955,0.687,0.312,0.558,0.522,�k�k��,9.3,��
2023/12/12,18:20,0.505,0.762,0.478,0.952,0.687,0.311,0.557,0.524,�k�k��,9.6,��
2023/12/12,18:30,0.505,0.762,0.479,0.954,0.687,0.311,0.557,0.524,�k�k��,9.4,��
2023/12/12,18:40,0.505,0.763,0.479,0.955,0.686,0.310,0.556,0.523,�k�k��,7.9,��
2023/12/12,18:50,0.505,0.763,0.478,0.954,0.685,0.313,0.557,0.522,�k��,8.3,��
2023/12/12,19:00,0.505,0.761,0.477,0.954,0.687,0.311,0.557,0.522,�k�k��,9.0,��
2023/12/12,19:10,0.505,0.761,0.479,0.955,0.687,0.311,0.557,0.522,�k�k��,7.0,��
2023/12/12,19:20,0.505,0.762,0.478,0.955,0.687,0.310,0.556,0.523,�k�k��,6.0,��
2023/12/12,19:30,0.503,0.762,0.479,0.957,0.686,0.310,0.558,0.521,�k�k��,7.2,��
2023/12/12,19:40,0.505,0.761,0.478,0.957,0.687,0.311,0.558,0.522,�k�k��,6.7,��
2023/12/12,19:50,0.504,0.762,0.477,0.955,0.688,0.311,0.558,0.522,�k�k��,7.7,��
2023/12/12,20:00,0.505,0.762,0.479,0.955,0.688,0.311,0.558,0.521,�k,7.0,��
2023/12/12,20:10,0.503,0.761,0.478,0.955,0.687,0.310,0.558,0.525,�k�k��,7.9,��
2023/12/12,20:20,0.505,0.762,0.478,0.957,0.687,0.311,0.559,0.521,�k,8.7,��
2023/12/12,20:30,0.505,0.760,0.479,0.955,0.688,0.311,0.560,0.522,�k�k��,8.1,��
2023/12/12,20:40,0.505,0.764,0.478,0.954,0.687,0.310,0.559,0.521,�k,6.7,��
2023/12/12,20:50,0.504,0.763,0.476,0.957,0.687,0.310,0.558,0.522,�k,9.2,��
2023/12/12,21:00,0.505,0.762,0.478,0.957,0.689,0.309,0.558,0.523,�k,8.4,��
2023/12/12,21:10,0.505,0.762,0.479,0.957,0.687,0.312,0.558,0.522,�k�k��,7.3,��
2023/12/12,21:20,0.506,0.762,0.479,0.953,0.688,0.311,0.557,0.521,�k,8.1,��
2023/12/12,21:30,0.504,0.762,0.479,0.955,0.689,0.309,0.557,0.523,�k,8.8,��
2023/12/12,21:40,0.504,0.763,0.479,0.956,0.688,0.309,0.558,0.522,�k�k��,9.6,��
2023/12/12,21:50,0.504,0.761,0.478,0.957,0.687,0.311,0.557,0.522,�k�k��,8.9,��
2023/12/12,22:00,0.505,0.764,0.478,0.956,0.688,0.309,0.558,0.522,�k,7.4,��
2023/12/12,22:10,0.505,0.762,0.478,0.956,0.687,0.310,0.558,0.521,�k,6.5,��
2023/12/12,22:20,0.504,0.761,0.477,0.958,0.687,0.311,0.558,0.522,�k,6.8,��
2023/12/12,22:30,0.504,0.763,0.477,0.958,0.690,0.309,0.558,0.522,�k�k��,7.2,��
2023/12/12,22:40,0.504,0.762,0.479,0.958,0.688,0.310,0.559,0.524,�k�k��,7.9,��
2023/12/12,22:50,0.504,0.762,0.478,0.958,0.688,0.312,0.559,0.523,�k,7.1,��
2023/12/12,23:00,0.505,0.763,0.480,0.957,0.686,0.311,0.559,0.521,�k,7.6,��
2023/12/12,23:10,0.505,0.762,0.478,0.956,0.689,0.313,0.559,0.522,�k�k��,7.0,��
2023/12/12,23:20,0.505,0.764,0.478,0.957,0.688,0.310,0.560,0.523,�k,7.5,��
2023/12/12,23:30,0.505,0.762,0.479,0.958,0.689,0.310,0.559,0.522,�k�k��,9.1,��
2023/12/12,23:40,0.505,0.763,0.477,0.956,0.688,0.310,0.559,0.521,�k,7.8,��
2023/12/12,23:50,0.506,0.762,0.479,0.957,0.688,0.309,0.558,0.522,�k,7.9,��
